Weather reports worldwide

Advertisment
Barcelona/Aeropuerto, Spain (8181): temperature & dewpoint: 08.10.2019 14:00:00 - 14.10.2019 14:00:00 (CEST)Barcelona/Aeropuerto, Spain (8181): wind speed: 08.10.2019 14:00:00 - 14.10.2019 14:00:00 (CEST)Barcelona/Aeropuerto, Spain (8181): wind direction: 08.10.2019 14:00:00 - 14.10.2019 14:00:00 (CEST)Barcelona/Aeropuerto, Spain (8181): reduced air pressure: 08.10.2019 14:00:00 - 14.10.2019 14:00:00 (CEST)Barcelona/Aeropuerto, Spain (8181): visibility: 08.10.2019 14:00:00 - 14.10.2019 14:00:00 (CEST)
Date & Time tt [°C] td [°C] ff [km/h] ff [kn] dd ppp [hPa] vv [km]
14.10.2019 14:00:00 - - - - - - -
14.10.2019 13:00:00 24,3 19,4 26 14 E 1014,6 17
14.10.2019 12:00:00 24,4 19,5 24 13 ENE 1015,1 22
14.10.2019 11:00:00 23,7 19,8 24 13 E 1015,4 15
14.10.2019 10:00:00 22,3 19,8 18 10 ENE 1015,6 11
14.10.2019 09:00:00 21,8 20,1 21 11 ENE 1014,9 11
14.10.2019 08:00:00 21,6 19,9 18 10 ENE 1014,7 10
14.10.2019 07:00:00 21,4 19,7 15 8 ENE 1015,4 12
14.10.2019 06:00:00 21,2 19,5 16 9 ENE 1015,7 14
14.10.2019 05:00:00 21,3 19,9 16 9 ENE 1015,9 12
14.10.2019 04:00:00 21,6 20,4 15 8 ENE 1016,2 10
14.10.2019 03:00:00 21,9 20,7 15 8 E 1016,9 11
14.10.2019 02:00:00 22,1 20,7 16 9 E 1017,1 11
14.10.2019 01:00:00 22,2 20,5 16 9 ENE 1017,3 13
14.10.2019 00:00:00 22,2 20,7 18 10 ENE 1017,6 12
13.10.2019 23:00:00 22,0 20,6 15 8 ENE 1017,9 12
13.10.2019 22:00:00 22,2 20,5 15 8 E 1017,9 14
13.10.2019 21:00:00 22,5 20,6 16 9 E 1017,7 15
13.10.2019 20:00:00 22,8 20,7 18 10 E 1017,4 14
13.10.2019 19:00:00 23,4 20,6 18 10 ESE 1017,2 15
13.10.2019 18:00:00 24,2 20,5 16 9 ESE 1017,4 17
13.10.2019 17:00:00 24,7 20,3 18 10 ESE 1017,3 15
13.10.2019 16:00:00 24,8 20,5 21 11 ESE 1017,3 16
13.10.2019 15:00:00 25,0 21,1 22 12 ESE 1017,4 15
13.10.2019 14:00:00 24,4 20,8 22 12 ESE 1018,2 15
13.10.2019 13:00:00 24,7 20,4 28 15 E 1018,6 19
13.10.2019 12:00:00 24,8 20,3 21 11 E 1018,9 16
13.10.2019 11:00:00 23,9 20,0 22 12 E 1018,6 20
13.10.2019 10:00:00 22,9 20,2 18 10 ENE 1018,2 17
13.10.2019 09:00:00 21,7 19,3 11 6 NE 1017,9 17
13.10.2019 08:00:00 21,1 18,5 9 5 NNE 1017,7 20
13.10.2019 07:00:00 21,4 18,6 9 5 NNE 1017,9 20
13.10.2019 06:00:00 22,1 20,6 13 7 NE 1017,7 15
13.10.2019 05:00:00 22,0 20,3 15 8 ENE 1017,9 20
13.10.2019 04:00:00 22,1 19,6 15 8 E 1018,2 19
13.10.2019 03:00:00 22,3 19,3 11 6 NE 1018,5 24
13.10.2019 02:00:00 22,4 19,8 16 9 E 1018,9 25
13.10.2019 01:00:00 22,3 19,8 16 9 E 1019,0 21
13.10.2019 00:00:00 22,6 20,1 16 9 E 1019,1 26
12.10.2019 23:00:00 22,5 19,7 15 8 E 1019,3 25
12.10.2019 22:00:00 22,2 19,7 13 7 E 1019,1 26
12.10.2019 21:00:00 22,0 19,7 11 6 E 1019,0 21
12.10.2019 20:00:00 22,5 19,8 9 5 ESE 1019,0 21
12.10.2019 19:00:00 22,8 19,6 9 5 SE 1018,7 25
12.10.2019 18:00:00 23,7 19,6 11 6 SE 1018,7 24
12.10.2019 17:00:00 23,9 19,8 15 8 SSE 1018,9 22
12.10.2019 16:00:00 24,3 19,8 13 7 SSE 1019,3 27
12.10.2019 15:00:00 24,4 19,9 15 8 SSE 1019,5 23
12.10.2019 14:00:00 24,4 20,1 13 7 SSE 1020,1 15
12.10.2019 13:00:00 25,0 19,9 13 7 SSE 1020,5 28
12.10.2019 12:00:00 25,0 19,9 8 4 SE 1020,9 23
12.10.2019 11:00:00 23,1 19,9 5 3 NNE 1021,1 11
12.10.2019 10:00:00 21,8 19,5 8 4 NNE 1020,6 13
12.10.2019 09:00:00 20,2 18,5 4 2 NNE 1020,0 9
12.10.2019 08:00:00 19,4 17,9 11 6 N 1019,8 15
12.10.2019 07:00:00 19,7 18,0 8 4 NNE 1019,6 14
12.10.2019 06:00:00 19,6 18,1 8 4 NNE 1019,5 16
12.10.2019 05:00:00 19,4 18,1 4 2 ENE 1019,9 15
12.10.2019 04:00:00 19,5 18,2 4 2 NE 1019,9 15
12.10.2019 03:00:00 19,4 18,1 4 2 N 1020,4 14
12.10.2019 02:00:00 19,8 18,1 4 2 N 1020,7 15
12.10.2019 01:00:00 20,5 19,0 4 2 N 1020,9 13
12.10.2019 00:00:00 21,3 19,9 2 1 WNW 1020,9 14
11.10.2019 23:00:00 22,2 20,7 9 5 SW 1020,9 20
11.10.2019 22:00:00 22,2 20,5 8 4 WSW 1020,6 16
11.10.2019 21:00:00 22,3 20,4 13 7 WSW 1020,1 16
11.10.2019 20:00:00 22,1 20,2 8 4 WSW 1019,9 20
11.10.2019 19:00:00 22,9 20,2 11 6 WSW 1019,8 20
11.10.2019 18:00:00 23,2 20,0 11 6 WSW 1019,8 21
11.10.2019 17:00:00 23,1 19,5 13 7 SW 1020,0 20
11.10.2019 16:00:00 23,6 19,1 15 8 SW 1020,3 21
11.10.2019 15:00:00 23,5 18,6 15 8 SW 1020,8 16
11.10.2019 14:00:00 23,5 17,9 15 8 SSW 1021,5 20
11.10.2019 13:00:00 23,4 17,6 9 5 SW 1022,1 19
11.10.2019 12:00:00 22,4 16,2 9 5 N 1022,5 15
11.10.2019 11:00:00 21,4 16,3 13 7 N 1022,4 15
11.10.2019 10:00:00 20,4 15,7 11 6 N 1022,2 14
11.10.2019 09:00:00 19,7 15,6 13 7 N 1021,9 16
11.10.2019 08:00:00 18,9 15,6 13 7 N 1021,5 18
11.10.2019 07:00:00 19,3 16,0 9 5 N 1021,3 20
11.10.2019 06:00:00 19,9 16,1 11 6 N 1021,3 15
11.10.2019 05:00:00 19,9 16,1 9 5 N 1021,4 15
11.10.2019 04:00:00 19,9 15,9 9 5 N 1021,6 15
11.10.2019 03:00:00 19,9 15,9 9 5 N 1022,2 16
11.10.2019 02:00:00 19,9 15,9 9 5 N 1022,5 1,6
11.10.2019 01:00:00 20,0 16,0 4 2 N 1022,7 11
11.10.2019 00:00:00 20,2 15,6 8 4 NNE 1022,9 10
10.10.2019 23:00:00 20,3 15,9 4 2 NNW 1022,8 20
10.10.2019 22:00:00 20,3 15,9 4 2 SW 1022,5 22
10.10.2019 21:00:00 20,3 15,9 8 4 W 1022,2 19
10.10.2019 20:00:00 20,3 15,3 9 5 WSW 1021,9 25
10.10.2019 19:00:00 20,7 15,3 9 5 WSW 1021,8 20
10.10.2019 18:00:00 20,7 16,1 15 8 WSW 1021,5 23
10.10.2019 17:00:00 20,9 15,9 15 8 WSW 1021,7 30
10.10.2019 16:00:00 21,4 14,8 13 7 W 1022,0 29
10.10.2019 15:00:00 21,4 14,7 11 6 WSW 1022,3 25
10.10.2019 14:00:00 21,1 15,0 11 6 W 1022,9 25
10.10.2019 13:00:00 20,9 14,1 8 4 W 1023,4 30
10.10.2019 12:00:00 20,9 14,1 9 5 S 1023,4 28
10.10.2019 11:00:00 20,6 15,1 11 6 SSE 1023,3 20
10.10.2019 10:00:00 20,2 15,7 5 3 SSE 1022,8 29
10.10.2019 09:00:00 18,9 16,5 9 5 NNE 1021,9 21
10.10.2019 08:00:00 18,7 16,3 8 4 N 1021,3 25
10.10.2019 07:00:00 19,1 16,1 8 4 NNW 1021,1 30
10.10.2019 06:00:00 19,2 16,8 5 3 NNW 1020,7 30
10.10.2019 05:00:00 19,1 17,1 5 3 NW 1020,7 30
10.10.2019 04:00:00 19,0 17,0 8 4 NNW 1020,8 30
10.10.2019 03:00:00 19,1 16,7 4 2 N 1021,2 30
10.10.2019 02:00:00 19,3 16,9 9 5 N 1021,3 30
10.10.2019 01:00:00 19,7 16,5 5 3 N 1021,1 30
10.10.2019 00:00:00 19,9 16,3 9 5 ENE 1020,9 30
09.10.2019 23:00:00 19,8 16,4 18 10 ENE 1020,8 30
09.10.2019 22:00:00 19,7 16,6 18 10 ENE 1020,3 30
09.10.2019 21:00:00 20,0 17,2 21 11 E 1019,9 23
09.10.2019 20:00:00 19,7 17,3 29 16 E 1019,2 7
09.10.2019 19:00:00 20,4 18,4 34 18 E 1018,4 11
09.10.2019 18:00:00 24,1 20,0 11 6 S 1017,4 30
09.10.2019 17:00:00 24,3 20,2 15 8 SW 1017,1 25
09.10.2019 16:00:00 23,3 20,4 15 8 SW 1017,2 14
09.10.2019 15:00:00 23,8 19,9 16 9 SW 1017,0 16
09.10.2019 14:00:00 24,1 19,4 21 11 WSW 1017,2 23
09.10.2019 13:00:00 24,7 19,3 21 11 SW 1017,5 25
09.10.2019 12:00:00 24,7 18,3 21 11 SW 1017,5 30
09.10.2019 11:00:00 24,4 17,7 21 11 WSW 1018,3 25
09.10.2019 10:00:00 22,7 18,0 8 4 WSW 1017,6 20
09.10.2019 09:00:00 20,2 16,6 5 3 N 1017,2 13
09.10.2019 08:00:00 19,7 16,7 9 5 N 1017,1 30
09.10.2019 07:00:00 19,6 16,6 9 5 NNE 1017,0 15
09.10.2019 06:00:00 19,1 16,8 11 6 N 1016,9 14
09.10.2019 05:00:00 19,3 17,4 9 5 N 1017,0 15
09.10.2019 04:00:00 19,4 17,4 2 1 N 1017,0 12
09.10.2019 03:00:00 19,8 17,4 5 3 N 1017,5 13
09.10.2019 02:00:00 20,3 17,1 4 2 NNE 1017,7 20
09.10.2019 01:00:00 20,7 17,7 5 3 N 1017,7 18
09.10.2019 00:00:00 21,9 19,5 9 5 W 1017,7 13
08.10.2019 23:00:00 22,0 19,4 13 7 W 1017,5 20
08.10.2019 22:00:00 22,2 19,4 13 7 W 1017,2 16
08.10.2019 21:00:00 22,4 19,2 16 9 W 1017,1 19
08.10.2019 20:00:00 22,8 19,0 22 12 WSW 1017,0 25
08.10.2019 19:00:00 23,6 18,3 24 13 WSW 1016,9 28
08.10.2019 18:00:00 24,6 18,6 26 14 WSW 1017,0 21
08.10.2019 17:00:00 25,0 19,0 29 16 WSW 1017,2 25
08.10.2019 16:00:00 24,9 18,6 34 18 WSW 1017,6 27
08.10.2019 15:00:00 25,1 17,1 29 16 WSW 1018,1 27
08.10.2019 14:00:00 25,3 16,3 28 15 WSW 1018,8 30

tt = temperature
td = dewpoint
ff = wind speed
dd = wind direction
ppp = reduced air pressure
vv = visibility

Next stations